EHI
0 0 0 0 0 0 0 0 0 0 0 0 0 0 0 0 0 0 0 0 0 0 0 0 0 0 0 0 0 0 0 0 0 0 0 0 0 0 0 0 0 0 0
0 0 0 0 0 0 0 0 0 0 0 0 0 0 0 0 0 0 0 0 0 0 0 0 0 0 0 0 0 0 0 0 0 0 0 0 0 0 0 0 0 0 0
0 0 0 0 0 0 0 0 0 0 0 0 0 0 0 0 0 0 0 0 0 0 0 0 0 0 0 0 0 0 0 0 0 0 0 0 0 0 0 0 0 0 0
0 0 0 0 0 0 0 0 0 0 0 0 0 0 0 0 0 0 0 0 0 0 0 0 0 0 0 0 0 0 0 0 0 0 0 0 0 0 0 0 0 0 0
0 0 0 0 0 0 0 0 0 0 0 0 0 0 0 0 0 0 0 0 0 0 0 0 0 0 0 0 0 0 0 0 0 0 0 0 0 0 0 0 0 0 0
0 0 0 0 0 0 0 0 0 0 0 0 0 0 0 0 0 0 0 0 0 0 0 0 0 0 0 0 0 0 0 0 0 0 0 0 0 0 0 0 0 0 0
0 0 0 0 0 0 0 0 0 0 0 0 0 0 0 0 0 0 0 0 0 0 0 0 0 0 0 0 0 0 0 0 0 0 0 0 0 0 0 0 0 0 0
0 0 0 0 0 0 0 0 0 0 0 0 0 0 0 0 0 0 0 0 0 0 0 0 0 0 0 0 0 0 0 0 0 0 0 0 0 0 0 0 0 0 0
0 0 0 0 0 0 0 0 0 0 0 0 0 0 0 0 0 0 0 0 0 0 0 0 0 0 0 0 0 0 0 0 0 0 0 0 0 0 0 0 0 0 0
0 0 0 0 0 0 0 0 0 0 0 0 0 0 0 0 0 0 0 0 0 0 0 0 0 0 0 0 0 0 0 0 0 0 0 0 0 0 0 0 0 0 0
0 0 0 0 0 0 0 0 0 0 0 0 0 0 0 0 0 0 0 0 0 0 0 0 0 0 0 0 0 0 0 0 0 0 0 0 0 0 0 0 0 0 0
0 0 0 0 0 0 0 0 0 0 0 0 0 0 0 0 0 0 0 0 0 0 0 0 0 0 0 0 0 0 0 0 0 0 0 0 0 0 0 0 0 0 0
0 0 0 0 0 0 0 0 0 0 0 0 0 0 0 0 0 0 0 0 0 0 0 0 0 0 0 0 0 0 0 0 0 0 0 0 0 0 0 0 0 0 0
0 0 0 0 0 0 0 0 0 0 0 0 0 0 0 0 0 0 0 0 0 0 0 0 0 0 0 0 0 0 0 0 0 0 0 0 0 0 0 0 0 0 0
0 0 0 0 0 0 0 0 0 0 0 0 0 0 0 0 0 0 0 0 0 0 0 0 0 0 0 0 0 0 0 0 0 0 0 0 0 0 0 0 0 0 0
0 0 0 0 0 0 0 0 0 0 0 0 0 0 0 0 0 0 0 0 0 0 0 0 0 0 0 0 0 0 0 0 0 0 0 0 0 0 0 0 0 0 0
0 0 0 0 0 0 0 0 0 0 0 0 0 0 0 0 0 0 0 0 0 0 0 0 0 0 0 0 0 0 0 0 0 0 0 0 0 0 0 0 0 0 0
0 0 0 0 0 0 0 0 0 0 0 0 0 0 0 0 0 0 0 0 0 0 0 0 0 0 0 0 0 0 0 0 0 0 0 0 0 0 0 0 0 0 0
0 0 0 0 0 0 0 0 0 0 0 0 0 0 0 0 0 0 0 0 0 0 0 0 0 0 0 0 0 0 0 0 0 0 0 0 0 0 0 0 0 0 0
0 0 0 0 0 0 0 0 0 0 0 0 0 0 0 0 0 0 0 0 0 0 0 0 0 0 0 0 0 0 0 0 0 0 0 0 0 0 0 0 0 0 0
0 0 0 0 0 0 0 0 0 0 0 0 0 0 0 0 0 0 0 0 0 0 0 0 0 0 0 0 0 0 0 0 0 0 0 0 0 0 0 0 0 0 0
0 0 0 0 0 0 0 0 0 0 0 0 0 0 0 0 0 0 0 0 0 0 0 0 0 0 0 0 0 0 0 0 0 0 0 0 0 0 0 0 0 0 0
0 0 0 0 0 0 0 0 0 0 0 0 0 0 0 0 0 0 0 0 0 0 0 0 0 0 0 0 0 0 0 0 0 0 0 0 0 0 0 0 0 0 0
0 0 0 0 0 0 0 0 0 0 0 0 0 0 0 0 0 0 0 0 0 0 0 0 0 0 0 0 0 0 0 0 0 0 0 0 0 0 0 0 0 0 0
0 0 0 0 0 0 0 0 0 0 0 0 0 0 0 0 0 0 0 0 0 0 0 0 0 0 0 0 0 0 0 0 0 0 0 0 0 0 0 0 0 0 0
0 0 0 0 0 0 0 0 0 0 0 0 0 0 0 0 0 0 0 0 0 0 0 0 0 0 0 0 0 0 0 0 0 0 0 0 0 0 0 0 0 0 0
Wind_Speed
5 4 3 3 3 3 3 4 4 4 4 4 3 4 4 4 3 3 3 8 10 9 8 8 8 7 7 7 8 8 8 8 8 8 9 9 9 9 9 9 9 9 9
5 5 4 4 4 4 4 4 5 4 3 3 4 4 4 3 3 3 3 5 9 9 7 7 7 7 7 7 7 7 8 8 8 8 8 8 8 9 9 9 10 10 10
7 6 5 5 5 4 5 4 4 4 3 3 3 3 3 3 3 3 3 3 3 6 7 6 6 6 6 7 7 8 7 7 7 7 7 8 8 8 9 9 10 10 11
9 7 6 6 5 5 5 5 5 4 3 3 3 2 2 2 3 2 2 2 2 2 3 5 5 4 5 6 7 8 8 7 6 7 7 8 8 9 9 9 10 11 12
11 9 7 6 7 6 5 6 3 3 3 3 3 2 2 2 2 2 2 2 2 2 2 2 3 3 3 5 6 8 8 8 7 7 7 8 9 9 10 11 11 12 13
12 10 7 8 8 7 6 5 5 3 3 4 4 3 2 1 2 2 3 2 2 2 2 2 2 2 4 4 6 7 8 9 8 8 8 9 10 11 11 12 13 14 15
12 11 8 9 9 9 9 9 5 4 3 3 4 2 1 1 1 1 2 2 2 2 2 2 1 1 2 5 6 8 9 9 10 10 10 11 12 12 13 14 15 16 16
13 12 12 11 10 8 9 9 6 5 3 4 4 3 1 1 1 1 1 2 3 2 3 3 2 1 1 1 4 7 8 9 10 11 12 13 14 15 15 16 17 18 18
13 13 13 11 11 11 11 12 10 9 6 3 3 5 5 5 2 0 0 1 2 2 2 2 2 1 1 1 2 5 7 9 11 13 14 15 16 17 18 19 19 19 19
14 13 13 13 13 11 11 12 10 7 8 5 2 1 1 3 4 2 1 1 1 3 3 2 2 2 2 1 3 5 8 10 12 14 16 17 19 20 20 21 21 21 20
12 13 13 12 12 11 11 11 10 8 6 7 6 4 3 2 2 4 3 2 1 1 2 2 2 2 2 2 1 5 10 12 14 16 18 20 21 22 22 22 22 22 21
8 11 12 12 11 10 10 10 10 10 6 7 6 5 5 4 4 3 3 2 2 1 1 1 2 3 2 1 2 9 11 14 16 18 20 21 22 22 22 22 22 22 22
8 12 12 11 10 9 9 9 9 8 7 8 6 4 3 3 3 3 3 2 1 1 2 1 2 2 3 1 2 10 11 15 17 20 21 22 22 22 22 22 22 23 23
10 10 11 11 10 10 10 9 7 7 6 7 7 6 5 4 3 3 3 4 2 1 2 3 1 2 2 1 5 10 5 15 19 20 21 22 22 21 22 22 23 23 23
5 8 9 9 9 10 11 11 8 8 8 7 7 7 5 4 4 3 3 3 4 2 3 3 2 2 2 2 6 3 3 13 19 20 21 22 21 22 22 23 23 23 23
6 8 9 9 10 10 11 10 10 9 10 8 7 8 6 4 4 3 3 2 2 3 3 3 3 3 3 4 9 5 5 18 19 20 21 22 22 23 23 23 23 23 24
8 9 10 10 11 11 11 11 10 11 11 9 8 8 7 5 4 3 2 2 2 3 4 3 3 2 3 5 7 5 6 6 8 20 23 23 23 23 23 23 23 23 23
9 10 11 11 11 11 11 12 12 11 11 10 8 8 6 4 4 3 2 2 2 3 4 5 3 3 5 5 6 7 7 8 7 18 23 22 22 22 22 22 22 23 24
10 10 11 12 12 12 12 12 12 11 10 9 8 7 6 5 3 2 3 3 3 4 4 4 4 3 4 4 5 6 8 8 9 13 18 20 21 21 22 23 24 25 25
10 11 11 12 12 12 13 12 12 11 10 9 7 6 5 3 3 3 3 4 4 4 4 4 5 4 4 5 4 5 8 5 8 10 13 15 18 20 23 25 25 25 25
12 12 13 13 12 11 11 12 11 10 9 8 6 5 3 2 3 3 3 4 4 4 4 4 5 4 4 4 5 5 9 8 8 8 7 6 8 9 12 18 22 23 25
12 13 13 13 12 10 17 17 12 9 8 7 5 3 2 1 1 3 6 6 6 4 4 4 4 6 6 6 6 7 8 10 7 3 4 8 7 10 9 8 19 25 25
12 13 12 12 13 14 18 16 14 8 7 5 4 3 2 1 2 2 6 8 8 11 12 7 6 7 7 7 8 9 9 9 10 7 8 13 8 11 10 12 24 26 27
10 10 11 11 10 12 16 15 13 8 6 4 3 2 1 1 3 5 5 4 5 5 8 6 6 8 9 9 9 9 9 9 9 8 6 10 10 11 11 9 21 26 27
10 9 9 9 9 9 12 11 10 4 4 3 2 1 1 3 8 11 5 4 5 5 10 14 16 15 18 19 15 7 6 8 10 7 4 6 6 6 8 10 13 20 21
9 8 8 7 7 5 7 8 8 3 3 2 1 1 4 6 10 11 5 4 5 6 6 7 8 11 10 11 15 6 4 6 7 7 3 4 4 5 8 5 6 7 11
Wind_Direction
175 172 167 161 156 144 141 131 124 121 114 107 107 114 112 103 95 81 86 108 112 114 110 99 87 75 66 57 52 46 38 32 28 23 20 18 16 12 8 5 2 358 353
178 176 173 171 168 160 152 145 141 133 122 114 108 113 118 114 103 97 83 103 115 118 115 104 90 76 62 51 45 40 33 27 21 15 11 9 8 4 360 358 355 350 345
183 181 181 183 177 158 144 129 122 116 116 110 108 118 124 129 125 115 102 87 99 115 120 112 99 81 63 46 37 29 23 17 10 3 359 356 356 352 349 348 345 340 335
187 184 187 189 171 156 149 145 138 122 125 127 125 118 123 137 143 138 118 109 95 86 103 117 108 85 56 34 24 16 9 2 355 348 344 341 339 336 335 334 333 330 325
193 190 190 183 166 161 159 158 146 139 146 146 137 113 111 149 167 160 156 146 131 115 88 100 97 77 42 17 7 0 354 347 339 331 328 326 325 322 321 321 321 320 317
194 191 187 177 168 165 166 163 147 124 132 142 120 96 74 117 165 180 184 168 161 147 126 89 70 32 21 3 353 344 338 333 326 319 316 315 313 310 312 313 313 312 310
192 190 185 177 177 179 178 166 144 137 133 143 115 93 44 51 133 177 181 174 178 166 147 135 118 78 1 359 348 333 328 323 318 314 309 306 305 304 305 307 307 306 305
193 192 188 185 183 176 172 173 155 144 144 169 145 136 178 295 265 105 177 183 177 156 157 149 129 100 31 4 333 338 330 322 317 312 306 304 303 302 303 303 302 301 301
195 194 192 185 184 182 184 183 175 160 157 179 189 156 161 205 198 230 230 170 171 160 159 148 132 91 60 44 346 337 340 332 320 312 309 308 306 304 303 302 301 300 299
196 194 189 187 187 188 186 186 181 169 151 160 172 155 128 144 153 177 251 256 200 180 178 162 134 112 93 66 21 358 351 338 324 318 313 310 306 304 302 300 300 299 299
195 193 189 188 189 190 187 181 178 174 167 161 159 154 139 90 116 147 186 211 237 220 208 187 166 149 123 91 14 350 352 338 327 319 312 307 304 302 301 301 301 301 299
194 193 188 189 189 186 184 181 178 176 173 160 157 156 157 159 170 161 162 174 208 254 260 223 188 172 157 121 4 354 346 334 324 316 310 305 303 302 302 302 300 299 297
198 197 190 188 186 182 176 167 167 170 163 157 154 144 131 126 130 131 128 139 169 300 309 268 196 180 171 156 318 344 340 327 319 312 307 304 303 303 302 299 297 296 294
204 191 189 184 176 168 163 157 152 149 140 136 130 124 116 110 105 115 131 133 136 289 288 270 243 204 200 240 307 335 326 318 313 307 305 305 304 302 299 296 295 294 292
174 168 169 166 160 155 152 148 145 139 131 123 122 118 110 104 96 96 110 131 150 206 262 263 260 232 228 249 299 302 282 306 308 308 306 302 300 298 296 295 293 291 290
141 144 147 147 145 143 143 138 134 132 125 121 122 118 111 108 104 104 115 121 143 178 236 249 245 247 262 286 298 307 292 306 309 305 301 300 299 297 294 293 292 291 290
136 140 140 139 138 138 137 133 131 129 124 121 120 119 116 119 118 120 127 137 169 185 235 259 250 262 274 280 290 290 283 279 285 298 300 299 297 296 295 294 293 291 289
135 136 135 134 134 132 131 129 127 124 123 122 119 117 118 119 122 136 147 177 206 211 225 259 261 262 261 269 273 280 291 291 284 296 298 299 299 298 297 295 293 293 292
126 127 127 127 126 124 120 118 117 115 114 114 115 117 119 123 140 163 184 203 219 228 220 241 261 251 262 269 277 277 279 280 285 291 298 299 298 297 296 297 297 296 294
113 113 112 113 114 113 112 112 110 109 106 103 102 105 110 130 179 199 209 218 225 236 236 246 262 264 262 262 265 281 293 279 286 290 288 289 292 297 297 296 294 293 291
100 102 103 102 103 103 107 108 107 108 107 103 98 95 106 151 219 219 223 223 221 233 245 256 267 274 275 278 279 280 294 295 282 274 276 274 282 282 285 288 290 289 287
94 97 99 100 97 99 107 107 107 104 104 103 101 96 103 97 5 341 314 295 272 255 250 248 264 274 281 277 280 285 292 299 297 271 281 288 282 284 282 274 284 288 288
92 92 93 97 99 106 108 105 104 102 101 104 112 113 98 53 23 312 304 305 303 299 294 288 284 279 280 278 279 282 279 280 283 285 293 290 284 283 281 282 289 289 290
91 92 94 96 98 102 104 103 105 101 105 112 116 120 116 311 300 290 266 264 266 274 284 283 260 263 267 268 262 274 283 286 279 276 270 280 284 281 283 279 286 286 288
88 87 88 90 93 99 105 109 111 108 102 97 90 91 292 277 296 307 304 280 278 277 295 296 294 295 298 302 303 299 294 295 293 287 253 260 276 285 280 274 276 282 286
86 84 80 77 84 87 105 111 116 108 103 97 68 329 317 309 306 314 309 290 288 282 280 291 298 300 296 294 299 290 271 278 284 288 253 253 276 305 298 263 254 270 280